Weather History for Philadelphia Wings Airport, PA

Change the Weather History Date:

Saturday, April 5, 2014

  Actual Average (KPNE) Record (KPNE)
Temperature  
Mean Temperature 47 °F -  
Max Temperature 53 °F 56 °F 72 °F (2011)
Min Temperature 41 °F 37 °F 28 °F (2004)
Degree Days  
Heating Degree Days 18    
Moisture  
Dew Point 34 °F    
Average Humidity 64    
Maximum Humidity 93    
Minimum Humidity 38    
Precipitation  
Precipitation 0.01 in - - ()
Sea Level Pressure  
Sea Level Pressure 29.90 in    
Wind  
Wind Speed 5 mph (WNW)    
Max Wind Speed 22 mph    
Max Gust Speed 30 mph    
Visibility 7 miles    
Events      
Averages and records for this station are not official NWS values.
T = Trace of Precipitation, MM = Missing Value Source: NWS Daily Summary

Daily Weather History Graph

Daily Weather History Graph

Search for Another Location

Airport:

Trip Planner

Search our weather history database for the weather conditions in past years. The results will help you decide how hot, cold, wet, or windy it might be!

Date:

Astronomy

Apr. 05, 2014 Rise Set
Actual Time 6:38 AM EDT 7:29 PM EDT
Civil Twilight 6:11 AM EDT 7:57 PM EDT
Nautical Twilight 5:38 AM EDT 8:29 PM EDT
Astronomical Twilight 5:04 AM EDT 9:03 PM EDT
Moon 10:44 AM EDT (4/5) 12:37 AM EDT (4/5)
Length of Visible Light 13h 46m
Length of Day
12h 50m
Waxing Crescent, 34% of the Moon is Illuminated
Apr 5
Waxing Crescent
Apr 7
First Quarter
Apr 15
Full
Apr 22
Last Quarter
Apr 29
New

Hourly Weather History & Observations

Time (EDT) Temp. Windchill Dew Point Humidity Pressure Visibility Wind Dir Wind Speed Gust Speed Precip Events Conditions
12:15 AM 42.8 °F - 41.0 °F 93% 29.75 in 3.0 mi Calm Calm - N/A   Overcast
12:35 AM 42.8 °F - 41.0 °F 93% 29.74 in 1.5 mi Calm Calm - N/A   Overcast
12:55 AM 42.8 °F - 41.0 °F 93% 29.75 in 1.2 mi Calm Calm - N/A   Overcast
1:15 AM 42.8 °F - 41.0 °F 93% 29.75 in 1.2 mi Calm Calm - N/A   Overcast
1:35 AM 42.8 °F - 41.0 °F 93% 29.74 in 1.0 mi Calm Calm - N/A   Overcast
1:55 AM 42.8 °F - 41.0 °F 93% 29.74 in 1.0 mi Calm Calm - N/A   Overcast
2:15 AM 42.8 °F - 41.0 °F 93% 29.74 in 1.2 mi Calm Calm - N/A   Overcast
2:35 AM 42.8 °F - 41.0 °F 93% 29.74 in 1.2 mi Calm Calm - N/A   Overcast
2:55 AM 42.8 °F - 41.0 °F 93% 29.73 in 2.0 mi Calm Calm - N/A   Overcast
3:15 AM 42.8 °F - 41.0 °F 93% 29.74 in 2.0 mi Calm Calm - N/A   Overcast
3:35 AM 42.8 °F - 41.0 °F 93% 29.74 in 1.8 mi Calm Calm - N/A   Overcast
3:55 AM 42.8 °F - 41.0 °F 93% 29.75 in 1.0 mi Calm Calm - N/A   Overcast
4:15 AM 42.8 °F - 41.0 °F 93% 29.75 in 0.5 mi Calm Calm - N/A   Overcast
4:35 AM 42.8 °F 40.1 °F 41.0 °F 93% 29.77 in 1.0 mi WNW 4.6 mph - N/A   Overcast
4:55 AM 42.8 °F 41.1 °F 41.0 °F 93% 29.77 in 1.0 mi WNW 3.5 mph - N/A   Overcast
5:15 AM 42.8 °F - 41.0 °F 93% 29.78 in 1.2 mi Calm Calm - N/A   Overcast
5:35 AM 44.6 °F - 42.8 °F 93% 29.79 in 1.2 mi Calm Calm - N/A   Overcast
5:55 AM 44.6 °F 43.1 °F 42.8 °F 93% 29.79 in 1.2 mi WNW 3.5 mph - N/A   Overcast
6:15 AM 44.6 °F - 42.8 °F 93% 29.80 in 2.0 mi Calm Calm - N/A   Overcast
6:35 AM 44.6 °F 41.4 °F 42.8 °F 93% 29.80 in 4.0 mi West 5.8 mph - N/A   Overcast
6:55 AM 44.6 °F - 42.8 °F 93% 29.81 in 3.0 mi Calm Calm - N/A   Overcast
7:15 AM 44.6 °F - 42.8 °F 93% 29.82 in 4.0 mi Calm Calm - N/A   Scattered Clouds
7:35 AM 44.6 °F - 42.8 °F 93% 29.82 in 4.0 mi Calm Calm - N/A   Clear
7:55 AM 44.6 °F 41.4 °F 42.8 °F 93% 29.83 in 5.0 mi WSW 5.8 mph - N/A   Scattered Clouds
8:15 AM 46.4 °F 45.2 °F 41.0 °F 81% 29.83 in 7.0 mi West 3.5 mph - N/A   Scattered Clouds
8:35 AM 50.0 °F - 37.4 °F 62% 29.84 in 10.0 mi NW 9.2 mph 18.4 mph 0.01 in   Clear
8:55 AM 50.0 °F - 35.6 °F 58% 29.85 in 10.0 mi WNW 13.8 mph 23.0 mph 0.01 in   Clear
9:15 AM 50.0 °F - 33.8 °F 54% 29.86 in 10.0 mi NW 12.7 mph 21.9 mph N/A   Clear
9:35 AM 50.0 °F - 33.8 °F 54% 29.86 in 10.0 mi NW 15.0 mph 24.2 mph N/A   Clear
9:55 AM 51.8 °F - 33.8 °F 50% 29.87 in 10.0 mi WNW 12.7 mph 21.9 mph N/A   Clear
10:15 AM 51.8 °F - 33.8 °F 50% 29.88 in 10.0 mi WNW 13.8 mph 26.5 mph N/A   Scattered Clouds
10:35 AM 50.0 °F - 32.0 °F 50% 29.89 in 10.0 mi West 13.8 mph 24.2 mph N/A   Scattered Clouds
10:55 AM 51.8 °F - 32.0 °F 47% 29.89 in 10.0 mi WNW 11.5 mph 20.7 mph N/A   Mostly Cloudy
11:15 AM 51.8 °F - 32.0 °F 47% 29.89 in 10.0 mi WNW 8.1 mph 19.6 mph N/A   Mostly Cloudy
11:35 AM 51.8 °F - 32.0 °F 47% 29.90 in 10.0 mi WNW 13.8 mph 20.7 mph N/A   Mostly Cloudy
11:55 AM 51.8 °F - 30.2 °F 44% 29.90 in 10.0 mi West 10.4 mph 20.7 mph N/A   Mostly Cloudy
12:15 PM 51.8 °F - 32.0 °F 47% 29.90 in 10.0 mi WNW 11.5 mph 20.7 mph N/A   Mostly Cloudy
12:35 PM 51.8 °F - 30.2 °F 44% 29.90 in 10.0 mi WNW 13.8 mph 23.0 mph N/A   Scattered Clouds
12:55 PM 53.6 °F - 30.2 °F 41% 29.91 in 10.0 mi WNW 13.8 mph 19.6 mph N/A   Scattered Clouds
1:15 PM 53.6 °F - 30.2 °F 41% 29.91 in 10.0 mi NW 10.4 mph 20.7 mph N/A   Scattered Clouds
1:35 PM 51.8 °F - 28.4 °F 41% 29.91 in 10.0 mi WNW 10.4 mph 23.0 mph N/A   Mostly Cloudy
1:55 PM 53.6 °F - 30.2 °F 41% 29.92 in 10.0 mi WNW 15.0 mph 25.3 mph N/A   Scattered Clouds
2:15 PM 53.6 °F - 30.2 °F 41% 29.92 in 10.0 mi West 13.8 mph 26.5 mph N/A   Scattered Clouds
2:35 PM 53.6 °F - 30.2 °F 41% 29.92 in 10.0 mi WNW 21.9 mph 29.9 mph N/A   Scattered Clouds
2:55 PM 53.6 °F - 28.4 °F 38% 29.92 in 10.0 mi West 16.1 mph 26.5 mph N/A   Clear
3:15 PM 51.8 °F - 30.2 °F 44% 29.93 in 10.0 mi NW 16.1 mph 27.6 mph N/A   Scattered Clouds
3:35 PM 51.8 °F - 30.2 °F 44% 29.93 in 10.0 mi NW 12.7 mph 26.5 mph N/A   Scattered Clouds
3:55 PM 51.8 °F - 30.2 °F 44% 29.94 in 10.0 mi West 15.0 mph 24.2 mph N/A   Scattered Clouds
4:15 PM 51.8 °F - 30.2 °F 44% 29.95 in 10.0 mi NW 13.8 mph 21.9 mph N/A   Scattered Clouds
4:35 PM 51.8 °F - 30.2 °F 44% 29.95 in 10.0 mi WNW 11.5 mph 26.5 mph N/A   Scattered Clouds
4:55 PM 51.8 °F - 30.2 °F 44% 29.96 in 10.0 mi WNW 13.8 mph 26.5 mph N/A   Clear
5:15 PM 51.8 °F - 30.2 °F 44% 29.97 in 10.0 mi WNW 10.4 mph 21.9 mph N/A   Clear
5:35 PM 51.8 °F - 30.2 °F 44% 29.97 in 10.0 mi WNW 10.4 mph 24.2 mph N/A   Scattered Clouds
5:55 PM 50.0 °F - 30.2 °F 47% 29.98 in 10.0 mi WNW 8.1 mph 19.6 mph N/A   Clear
6:15 PM 50.0 °F - 30.2 °F 47% 29.99 in 10.0 mi WNW 12.7 mph 23.0 mph N/A   Clear
6:35 PM 50.0 °F - 30.2 °F 47% 30.00 in 10.0 mi WNW 11.5 mph 21.9 mph N/A   Clear
6:55 PM 48.2 °F - 28.4 °F 46% 30.00 in 10.0 mi West 13.8 mph 20.7 mph N/A   Clear
7:15 PM 46.4 °F 42.9 °F 28.4 °F 50% 30.01 in 10.0 mi WNW 6.9 mph 20.7 mph N/A   Clear
7:35 PM 46.4 °F 41.5 °F 28.4 °F 50% 30.02 in 10.0 mi WNW 10.4 mph 16.1 mph N/A   Clear
7:55 PM 46.4 °F 44.3 °F 28.4 °F 50% 30.03 in 10.0 mi NW 4.6 mph 9.2 mph N/A   Clear
8:15 PM 44.6 °F 40.7 °F 28.4 °F 53% 30.04 in 10.0 mi WNW 6.9 mph - N/A   Clear
8:35 PM 44.6 °F 41.4 °F 28.4 °F 53% 30.05 in 10.0 mi WNW 5.8 mph - N/A   Clear
8:55 PM 44.6 °F 40.7 °F 28.4 °F 53% 30.06 in 10.0 mi WNW 6.9 mph - N/A   Clear
9:15 PM 44.6 °F 42.2 °F 28.4 °F 53% 30.07 in 10.0 mi WNW 4.6 mph - N/A   Clear
9:35 PM 42.8 °F 40.1 °F 28.4 °F 57% 30.08 in 10.0 mi WNW 4.6 mph - N/A   Clear
9:55 PM 42.8 °F 38.6 °F 28.4 °F 57% 30.08 in 10.0 mi WNW 6.9 mph - N/A   Clear
10:15 PM 42.8 °F 38.6 °F 28.4 °F 57% 30.09 in 10.0 mi WNW 6.9 mph - N/A   Clear
10:35 PM 42.8 °F 41.1 °F 26.6 °F 53% 30.09 in 10.0 mi WNW 3.5 mph - N/A   Clear
10:55 PM 42.8 °F 38.6 °F 26.6 °F 53% 30.09 in 10.0 mi West 6.9 mph - N/A   Clear
11:15 PM 41.0 °F 37.1 °F 28.4 °F 61% 30.10 in 10.0 mi WNW 5.8 mph - N/A   Clear
11:35 PM 41.0 °F 39.0 °F 28.4 °F 61% 30.11 in 10.0 mi West 3.5 mph - N/A   Clear
11:55 PM 41.0 °F 39.0 °F 26.6 °F 57% 30.11 in 10.0 mi WNW 3.5 mph - N/A   Clear